• In Hungary
  • List of Countries
  • For 7 days
  • Water Temperature
  • Satellite Maps
  • Weather Map
  • News
  • Weather Widgets
  • user-avatar
    Login

    Hourly Weather Luksor

    Today, 24 September, Monday

    Time Temperature Precipitation Wind Pressure Humidity
    00:00 +33°C° 0 mm 3 mps 751 mmHg 29%
    01:00 +31°C° 0 mm 3 mps 750 mmHg 31%
    02:00 +31°C° 0 mm 3 mps 750 mmHg 33%
    03:00 +30°C° 0 mm 3 mps 750 mmHg 35%
    04:00 +30°C° 0 mm 3 mps 750 mmHg 37%
    05:00 +29°C° 0 mm 3 mps 750 mmHg 39%
    06:00 +30°C° 0 mm 3 mps 750 mmHg 37%
    07:00 +31°C° 0 mm 3 mps 750 mmHg 35%
    08:00 +33°C° 0 mm 3 mps 751 mmHg 34%
    09:00 +35°C° 0 mm 3 mps 751 mmHg 29%
    10:00 +37°C° 0 mm 3 mps 751 mmHg 25%
    11:00 +40°C° 0 mm 4 mps 751 mmHg 20%
    12:00 +42°C° 0 mm 4 mps 750 mmHg 18%
    13:00 +43°C° 0 mm 4 mps 750 mmHg 15%
    14:00 +46°C° 0 mm 5 mps 749 mmHg 13%
    15:00 +45°C° 0 mm 5 mps 749 mmHg 13%
    16:00 +43°C° 0 mm 5 mps 749 mmHg 13%
    17:00 +44°C° 0 mm 6 mps 749 mmHg 13%
    18:00 +41°C° 0 mm 5 mps 749 mmHg 15%
    19:00 +39°C° 0 mm 5 mps 749 mmHg 16%
    20:00 +37°C° 0 mm 4 mps 750 mmHg 17%
    21:00 +36°C° 0 mm 4 mps 750 mmHg 18%
    22:00 +35°C° 0 mm 4 mps 750 mmHg 19%
    23:00 +34°C° 0 mm 4 mps 750 mmHg 20%

    Tomorrow, 25 September, Tuesday

    Time Temperature Precipitation Wind Pressure Humidity
    00:00 +34°C° 0 mm 3 mps 750 mmHg 21%
    01:00 +33°C° 0 mm 3 mps 750 mmHg 22%
    02:00 +31°C° 0 mm 3 mps 749 mmHg 22%
    03:00 +31°C° 0 mm 3 mps 749 mmHg 24%
    04:00 +30°C° 0 mm 3 mps 749 mmHg 25%
    05:00 +30°C° 0 mm 3 mps 749 mmHg 26%
    06:00 +32°C° 0 mm 4 mps 749 mmHg 25%
    07:00 +33°C° 0 mm 4 mps 750 mmHg 25%
    08:00 +34°C° 0 mm 4 mps 750 mmHg 24%
    09:00 +36°C° 0 mm 5 mps 750 mmHg 21%
    10:00 +39°C° 0 mm 5 mps 750 mmHg 18%
    11:00 +41°C° 0 mm 6 mps 750 mmHg 15%
    12:00 +42°C° 0 mm 6 mps 749 mmHg 14%
    13:00 +45°C° 0 mm 6 mps 749 mmHg 13%
    14:00 +46°C° 0 mm 6 mps 748 mmHg 11%
    15:00 +45°C° 0 mm 6 mps 748 mmHg 12%
    16:00 +44°C° 0 mm 6 mps 748 mmHg 13%
    17:00 +42°C° 0 mm 6 mps 748 mmHg 13%
    18:00 +41°C° 0 mm 5 mps 748 mmHg 16%
    19:00 +39°C° 0 mm 5 mps 749 mmHg 19%
    20:00 +37°C° 0 mm 5 mps 749 mmHg 21%
    21:00 +36°C° 0 mm 4 mps 749 mmHg 23%
    22:00 +35°C° 0 mm 4 mps 749 mmHg 24%
    23:00 +34°C° 0 mm 3 mps 749 mmHg 26%

    Day after tomorrow, 26 September, Wednesday

    Time Temperature Precipitation Wind Pressure Humidity
    00:00 +33°C° 0 mm 3 mps 749 mmHg 27%
    01:00 +33°C° 0 mm 3 mps 749 mmHg 28%
    02:00 +31°C° 0 mm 3 mps 749 mmHg 29%
    03:00 +31°C° 0 mm 3 mps 749 mmHg 30%
    04:00 +30°C° 0 mm 3 mps 748 mmHg 31%
    05:00 +30°C° 0 mm 3 mps 748 mmHg 32%
    06:00 +31°C° 0 mm 3 mps 749 mmHg 30%
    07:00 +33°C° 0 mm 4 mps 749 mmHg 29%
    08:00 +34°C° 0 mm 4 mps 750 mmHg 27%
    09:00 +36°C° 0 mm 5 mps 750 mmHg 24%
    10:00 +39°C° 0 mm 5 mps 750 mmHg 21%
    11:00 +40°C° 0 mm 5 mps 750 mmHg 17%
    12:00 +41°C° 0 mm 5 mps 749 mmHg 16%
    13:00 +42°C° 0 mm 5 mps 748 mmHg 14%
    14:00 +43°C° 0 mm 5 mps 748 mmHg 13%
    15:00 +43°C° 0 mm 5 mps 748 mmHg 14%
    16:00 +42°C° 0 mm 5 mps 748 mmHg 15%
    17:00 +41°C° 0 mm 5 mps 747 mmHg 15%
    18:00 +40°C° 0 mm 5 mps 748 mmHg 17%
    19:00 +39°C° 0 mm 5 mps 748 mmHg 19%
    20:00 +36°C° 0 mm 4 mps 749 mmHg 21%
    21:00 +35°C° 0 mm 4 mps 749 mmHg 23%
    22:00 +35°C° 0 mm 4 mps 749 mmHg 24%
    23:00 +34°C° 0 mm 3 mps 749 mmHg 25%

    27 September, Thursday

    Time Temperature Precipitation Wind Pressure Humidity
    00:00 +33°C° 0 mm 3 mps 749 mmHg 26%
    01:00 +33°C° 0 mm 3 mps 749 mmHg 27%
    02:00 +32°C° 0 mm 4 mps 749 mmHg 28%
    03:00 +31°C° 0 mm 3 mps 749 mmHg 29%
    04:00 +30°C° 0 mm 3 mps 749 mmHg 31%
    05:00 +29°C° 0 mm 3 mps 749 mmHg 32%
    06:00 +30°C° 0 mm 3 mps 749 mmHg 30%
    07:00 +31°C° 0 mm 3 mps 750 mmHg 29%
    08:00 +33°C° 0 mm 3 mps 750 mmHg 27%
    09:00 +35°C° 0 mm 3 mps 750 mmHg 24%
    10:00 +37°C° 0 mm 4 mps 750 mmHg 20%
    11:00 +40°C° 0 mm 4 mps 750 mmHg 17%
    12:00 +41°C° 0 mm 4 mps 749 mmHg 16%
    13:00 +42°C° 0 mm 4 mps 749 mmHg 15%
    14:00 +43°C° 0 mm 4 mps 748 mmHg 14%
    15:00 +42°C° 0 mm 4 mps 748 mmHg 14%
    16:00 +42°C° 0 mm 5 mps 748 mmHg 15%
    17:00 +42°C° 0 mm 5 mps 748 mmHg 15%
    18:00 +40°C° 0 mm 5 mps 749 mmHg 17%
    19:00 +39°C° 0 mm 5 mps 749 mmHg 19%
    20:00 +36°C° 0 mm 5 mps 750 mmHg 22%
    21:00 +36°C° 0 mm 4 mps 750 mmHg 23%
    22:00 +35°C° 0 mm 4 mps 750 mmHg 24%
    23:00 +34°C° 0 mm 4 mps 750 mmHg 26%

    28 September, Friday

    Time Temperature Precipitation Wind Pressure Humidity
    00:00 +33°C° 0 mm 3 mps 750 mmHg 27%
    01:00 +33°C° 0 mm 3 mps 750 mmHg 27%
    02:00 +31°C° 0 mm 2 mps 750 mmHg 28%
    03:00 +31°C° 0 mm 3 mps 750 mmHg 28%
    04:00 +31°C° 0 mm 3 mps 750 mmHg 28%
    05:00 +31°C° 0 mm 3 mps 750 mmHg 28%
    06:00 +33°C° 0 mm 3 mps 750 mmHg 27%
    07:00 +32°C° 0 mm 2 mps 751 mmHg 26%
    08:00 +34°C° 0 mm 2 mps 751 mmHg 25%
    09:00 +35°C° 0 mm 2 mps 751 mmHg 23%
    10:00 +37°C° 0 mm 3 mps 751 mmHg 21%
    11:00 +38°C° 0 mm 3 mps 751 mmHg 19%
    12:00 +39°C° 0 mm 3 mps 750 mmHg 17%
    13:00 +42°C° 0 mm 4 mps 750 mmHg 16%
    14:00 +43°C° 0 mm 4 mps 749 mmHg 14%
    15:00 +42°C° 0 mm 4 mps 749 mmHg 14%
    16:00 +42°C° 0 mm 4 mps 749 mmHg 14%
    17:00 +42°C° 0 mm 4 mps 749 mmHg 14%
    18:00 +41°C° 0 mm 4 mps 749 mmHg 15%
    19:00 +39°C° 0 mm 3 mps 749 mmHg 16%
    20:00 +38°C° 0 mm 3 mps 750 mmHg 17%
    21:00 +37°C° 0 mm 3 mps 750 mmHg 17%
    22:00 +37°C° 0 mm 3 mps 750 mmHg 18%
    23:00 +36°C° 0 mm 3 mps 749 mmHg 19%

    29 September, Saturday

    Time Temperature Precipitation Wind Pressure Humidity
    00:00 +36°C° 0 mm 2 mps 749 mmHg 20%
    01:00 +35°C° 0 mm 2 mps 749 mmHg 21%
    02:00 +34°C° 0 mm 2 mps 749 mmHg 22%
    03:00 +34°C° 0 mm 2 mps 749 mmHg 23%
    04:00 +32°C° 0 mm 2 mps 749 mmHg 25%
    05:00 +32°C° 0 mm 1 mps 749 mmHg 26%
    06:00 +33°C° 0 mm 1 mps 749 mmHg 24%
    07:00 +35°C° 0 mm 1 mps 750 mmHg 22%
    08:00 +36°C° 0 mm 1 mps 750 mmHg 20%
    09:00 +39°C° 0 mm 1 mps 750 mmHg 18%
    10:00 +41°C° 0 mm 2 mps 749 mmHg 15%
    11:00 +43°C° 0 mm 2 mps 749 mmHg 13%
    12:00 +45°C° 0 mm 2 mps 748 mmHg 12%
    13:00 +46°C° 0 mm 2 mps 748 mmHg 11%
    14:00 +47°C° 0 mm 2 mps 747 mmHg 10%
    15:00 +46°C° 0 mm 2 mps 747 mmHg 10%
    16:00 +46°C° 0 mm 3 mps 747 mmHg 10%
    17:00 +46°C° 0 mm 3 mps 747 mmHg 11%
    18:00 +44°C° 0 mm 4 mps 748 mmHg 12%
    19:00 +43°C° 0 mm 4 mps 748 mmHg 13%
    20:00 +41°C° 0 mm 4 mps 749 mmHg 14%
    21:00 +39°C° 0 mm 3 mps 749 mmHg 15%
    22:00 +38°C° 0 mm 3 mps 749 mmHg 16%
    23:00 +37°C° 0 mm 2 mps 749 mmHg 17%
    Show more

    3.3.7123123